Location: Nashville
(36.1660°N, 86.7840°W)
Time: 05:46:59
(UTC-05:00)

NOAA 19 - Visible Passes

Search period start: 22 May 2022 00:00
Search period end: 01 June 2022 00:00
Orbit: 841 x 860 km, 99.1° (Epoch: 21 May)

Date Brightness Start Highest point End Pass type
(mag) Time Alt. Az. Time Alt. Az. Time Alt. Az.
22 May 6.4 20:34:08 10° S 20:39:20 42° W 20:44:36 10° NNW visible
23 May 6.0 20:22:02 10° S 20:27:26 55° W 20:32:53 10° NNW visible
26 May 7.9 21:30:23 10° WSW 21:32:57 13° W 21:35:31 10° WNW visible
27 May 7.7 21:17:21 10° SW 21:20:58 18° W 21:24:36 10° NW visible
28 May 7.4 21:04:41 10° SSW 21:08:59 23° W 21:13:19 10° NW visible
29 May 7.0 20:52:15 10° SSW 20:57:02 30° W 21:01:51 10° NW visible
30 May 6.6 20:40:00 10° SSW 20:45:06 38° W 20:50:16 10° NNW visible
31 May 6.2 20:27:50 10° S 20:33:11 50° W 20:38:35 10° NNW visible
